• In Hungary
  • List of Countries
  • For 7 days
  • Water Temperature
  • Satellite Maps
  • Weather Map
  • News
  • Weather Widgets
  • user-avatar
    Login

    Hourly Weather Tarin Kowt

    Today, 18 February, Sunday

    Time Temperature Precipitation Wind Pressure Humidity
    00:00 +10°C° 0 mm 1 mps 617 mmHg 30%
    01:00 +10°C° 0 mm 1 mps 617 mmHg 31%
    02:00 +9°C° 0 mm 1 mps 617 mmHg 32%
    03:00 +9°C° 0 mm 1 mps 616 mmHg 32%
    04:00 +9°C° 0 mm 1 mps 616 mmHg 33%
    05:00 +9°C° 0 mm 1 mps 616 mmHg 33%
    06:00 +8°C° 0 mm 1 mps 616 mmHg 33%
    07:00 +8°C° 0 mm 1 mps 616 mmHg 34%
    08:00 +10°C° 0 mm 1 mps 617 mmHg 30%
    09:00 +12°C° 0 mm 1 mps 618 mmHg 27%
    10:00 +14°C° 0 mm 1 mps 618 mmHg 24%
    11:00 +15°C° 0 mm 1 mps 618 mmHg 24%
    12:00 +16°C° 0 mm 2 mps 618 mmHg 23%
    13:00 +17°C° 0 mm 2 mps 618 mmHg 23%
    14:00 +17°C° 0 mm 2 mps 618 mmHg 23%
    15:00 +17°C° 0 mm 2 mps 618 mmHg 23%
    16:00 +17°C° 0 mm 2 mps 617 mmHg 24%
    17:00 +16°C° 0 mm 1 mps 617 mmHg 27%
    18:00 +15°C° 0 mm 1 mps 617 mmHg 31%
    19:00 +14°C° 0 mm 1 mps 617 mmHg 34%
    20:00 +13°C° 0 mm 1 mps 617 mmHg 35%
    21:00 +13°C° 0 mm 1 mps 617 mmHg 35%
    22:00 +13°C° 0 mm 1 mps 617 mmHg 36%
    23:00 +12°C° 0 mm 1 mps 617 mmHg 37%

    Tomorrow, 19 February, Monday

    Time Temperature Precipitation Wind Pressure Humidity
    00:00 +12°C° 0 mm 1 mps 617 mmHg 37%
    01:00 +10°C° 0 mm 2 mps 616 mmHg 38%
    02:00 +10°C° 0 mm 2 mps 616 mmHg 39%
    03:00 +10°C° 0 mm 2 mps 616 mmHg 39%
    04:00 +10°C° 0 mm 2 mps 616 mmHg 40%
    05:00 +10°C° 0 mm 2 mps 616 mmHg 40%
    06:00 +10°C° 0 mm 2 mps 616 mmHg 40%
    07:00 +10°C° 0 mm 2 mps 616 mmHg 40%
    08:00 +13°C° 0 mm 2 mps 617 mmHg 35%
    09:00 +14°C° 0 mm 2 mps 618 mmHg 31%
    10:00 +16°C° 0 mm 2 mps 618 mmHg 27%
    11:00 +17°C° 0 mm 2 mps 618 mmHg 25%
    12:00 +18°C° 0 mm 2 mps 618 mmHg 23%
    13:00 +19°C° 0 mm 2 mps 618 mmHg 21%
    14:00 +19°C° 0 mm 3 mps 617 mmHg 21%
    15:00 +20°C° 0 mm 3 mps 617 mmHg 20%
    16:00 +20°C° 0 mm 3 mps 617 mmHg 20%
    17:00 +19°C° 0 mm 3 mps 617 mmHg 22%
    18:00 +17°C° 0 mm 2 mps 617 mmHg 25%
    19:00 +16°C° 0 mm 2 mps 616 mmHg 27%
    20:00 +16°C° 0 mm 2 mps 616 mmHg 28%
    21:00 +15°C° 0 mm 2 mps 616 mmHg 28%
    22:00 +15°C° 0 mm 2 mps 616 mmHg 29%
    23:00 +15°C° 0 mm 2 mps 616 mmHg 30%

    Day after tomorrow, 20 February, Tuesday

    Time Temperature Precipitation Wind Pressure Humidity
    00:00 +14°C° 0 mm 2 mps 616 mmHg 32%
    01:00 +14°C° 0 mm 2 mps 616 mmHg 34%
    02:00 +14°C° 0.1 mm 2 mps 615 mmHg 37%
    03:00 +13°C° 0.1 mm 2 mps 615 mmHg 40%
    04:00 +13°C° 0.1 mm 2 mps 615 mmHg 43%
    05:00 +12°C° 0.3 mm 2 mps 615 mmHg 47%
    06:00 +11°C° 0.3 mm 3 mps 615 mmHg 51%
    07:00 +10°C° 0.3 mm 3 mps 615 mmHg 55%
    08:00 +11°C° 0.3 mm 3 mps 616 mmHg 53%
    09:00 +12°C° 0.3 mm 3 mps 616 mmHg 51%
    10:00 +12°C° 0.3 mm 4 mps 616 mmHg 49%
    11:00 +14°C° 0.1 mm 5 mps 616 mmHg 44%
    12:00 +15°C° 0.1 mm 6 mps 617 mmHg 38%
    13:00 +17°C° 0.1 mm 7 mps 617 mmHg 32%
    14:00 +16°C° 0.1 mm 7 mps 616 mmHg 29%
    15:00 +16°C° 0.1 mm 8 mps 616 mmHg 26%
    16:00 +16°C° 0.1 mm 8 mps 616 mmHg 23%
    17:00 +15°C° 0 mm 6 mps 616 mmHg 25%
    18:00 +13°C° 0 mm 4 mps 616 mmHg 28%
    19:00 +13°C° 0 mm 2 mps 616 mmHg 30%
    20:00 +12°C° 0 mm 2 mps 616 mmHg 32%
    21:00 +12°C° 0 mm 2 mps 616 mmHg 33%
    22:00 +11°C° 0 mm 1 mps 616 mmHg 35%
    23:00 +10°C° 0 mm 1 mps 615 mmHg 37%

    21 February, Wednesday

    Time Temperature Precipitation Wind Pressure Humidity
    00:00 +10°C° 0 mm 1 mps 615 mmHg 39%
    01:00 +9°C° 0 mm 1 mps 615 mmHg 40%
    02:00 +9°C° 0 mm 1 mps 615 mmHg 42%
    03:00 +8°C° 0 mm 1 mps 614 mmHg 44%
    04:00 +6°C° 0 mm 0 mps 614 mmHg 45%
    05:00 +6°C° 0 mm 0 mps 615 mmHg 45%
    06:00 +7°C° 0 mm 0 mps 615 mmHg 45%
    07:00 +7°C° 0 mm 0 mps 616 mmHg 44%
    08:00 +8°C° 0 mm 0 mps 617 mmHg 38%
    09:00 +10°C° 0 mm 0 mps 618 mmHg 32%
    10:00 +12°C° 0 mm 0 mps 618 mmHg 25%
    11:00 +13°C° 0 mm 1 mps 618 mmHg 23%
    12:00 +14°C° 0 mm 1 mps 618 mmHg 21%
    13:00 +15°C° 0 mm 2 mps 618 mmHg 18%
    14:00 +15°C° 0 mm 2 mps 618 mmHg 18%
    15:00 +15°C° 0 mm 2 mps 617 mmHg 17%
    16:00 +15°C° 0 mm 2 mps 617 mmHg 17%
    17:00 +14°C° 0 mm 2 mps 617 mmHg 21%
    18:00 +13°C° 0 mm 1 mps 617 mmHg 24%
    19:00 +12°C° 0 mm 1 mps 617 mmHg 28%
    20:00 +12°C° 0 mm 1 mps 617 mmHg 29%
    21:00 +10°C° 0 mm 0 mps 617 mmHg 30%
    22:00 +10°C° 0 mm 0 mps 617 mmHg 31%
    23:00 +11°C° 0 mm 1 mps 617 mmHg 30%

    22 February, Thursday

    Time Temperature Precipitation Wind Pressure Humidity
    00:00 +10°C° 0 mm 1 mps 616 mmHg 30%
    01:00 +9°C° 0 mm 2 mps 616 mmHg 29%
    02:00 +8°C° 0 mm 2 mps 615 mmHg 29%
    03:00 +8°C° 0 mm 2 mps 615 mmHg 29%
    04:00 +8°C° 0 mm 2 mps 615 mmHg 29%
    05:00 +8°C° 0 mm 2 mps 615 mmHg 30%
    06:00 +8°C° 0 mm 2 mps 615 mmHg 30%
    07:00 +8°C° 0 mm 2 mps 616 mmHg 30%
    08:00 +10°C° 0 mm 2 mps 616 mmHg 27%
    09:00 +12°C° 0 mm 2 mps 617 mmHg 23%
    10:00 +14°C° 0 mm 1 mps 617 mmHg 19%
    11:00 +14°C° 0 mm 1 mps 617 mmHg 19%
    12:00 +15°C° 0 mm 1 mps 617 mmHg 19%
    13:00 +16°C° 0 mm 1 mps 616 mmHg 19%
    14:00 +16°C° 0 mm 1 mps 616 mmHg 20%
    15:00 +16°C° 0 mm 1 mps 616 mmHg 20%
    16:00 +16°C° 0 mm 1 mps 616 mmHg 21%
    17:00 +15°C° 0 mm 1 mps 616 mmHg 25%
    18:00 +14°C° 0 mm 1 mps 616 mmHg 29%
    19:00 +13°C° 0 mm 1 mps 616 mmHg 33%
    20:00 +13°C° 0 mm 1 mps 616 mmHg 33%
    21:00 +12°C° 0 mm 1 mps 616 mmHg 34%
    22:00 +12°C° 0 mm 1 mps 616 mmHg 34%
    23:00 +12°C° 0 mm 1 mps 615 mmHg 35%

    23 February, Friday

    Time Temperature Precipitation Wind Pressure Humidity
    00:00 +10°C° 0 mm 2 mps 615 mmHg 36%
    01:00 +10°C° 0 mm 2 mps 615 mmHg 37%
    02:00 +10°C° 0 mm 2 mps 615 mmHg 37%
    03:00 +9°C° 0 mm 2 mps 614 mmHg 38%
    04:00 +9°C° 0 mm 2 mps 614 mmHg 39%
    05:00 +9°C° 0 mm 2 mps 615 mmHg 39%
    06:00 +9°C° 0 mm 2 mps 615 mmHg 40%
    07:00 +9°C° 0 mm 2 mps 615 mmHg 41%
    08:00 +12°C° 0 mm 1 mps 616 mmHg 36%
    09:00 +14°C° 0 mm 1 mps 617 mmHg 32%
    10:00 +15°C° 0 mm 1 mps 618 mmHg 28%
    11:00 +16°C° 0 mm 1 mps 617 mmHg 26%
    12:00 +18°C° 0 mm 1 mps 617 mmHg 24%
    13:00 +18°C° 0 mm 1 mps 617 mmHg 23%
    14:00 +18°C° 0 mm 1 mps 617 mmHg 23%
    15:00 +18°C° 0 mm 1 mps 616 mmHg 23%
    16:00 +18°C° 0 mm 1 mps 616 mmHg 23%
    17:00 +17°C° 0 mm 2 mps 616 mmHg 26%
    18:00 +16°C° 0 mm 2 mps 616 mmHg 30%
    19:00 +15°C° 0 mm 2 mps 616 mmHg 33%
    20:00 +14°C° 0.1 mm 2 mps 616 mmHg 37%
    21:00 +14°C° 0.1 mm 2 mps 616 mmHg 41%
    22:00 +13°C° 0.1 mm 2 mps 616 mmHg 44%
    23:00 +12°C° 0.1 mm 2 mps 616 mmHg 48%
    Show more